This is the latest recevied weather packets stored in our database for station/object K2ATL. If no packets are shown the sender has not sent any weather packets the latest 10 day(s).
| Time | Temp. | Humidity | Pressure | Rain* | Wind** | Luminosity | Snow |
|---|---|---|---|---|---|---|---|
| 1787968870 | 23.33° C | 84% | 1104.7 hPa | 0 mm | - | 0 W/m² | - |
| 1787968569 | 23.33° C | 84% | 1104.7 hPa | 0 mm | - | 0 W/m² | - |
| 1787968265 | 23.33° C | 85% | 1104.7 hPa | 0 mm | - | 0 W/m² | - |
| 1787967960 | 23.33° C | 85% | 1104.5 hPa | 0 mm | - | 0 W/m² | - |
| 1787967656 | 23.33° C | 85% | 1104.3 hPa | 0 mm | - | 0 W/m² | - |
| 1787967356 | 23.89° C | 84% | 1104.5 hPa | 0 mm | - | 0 W/m² | - |
| 1787967052 | 23.89° C | 84% | 1104.2 hPa | 0 mm | - | 0 W/m² | - |
| 1787966748 | 23.89° C | 83% | 1103.8 hPa | 0 mm | - | 0 W/m² | - |
| 1787966443 | 23.89° C | 83% | 1104 hPa | 0 mm | - | 0 W/m² | - |
| 1787966143 | 23.89° C | 80% | 1103.8 hPa | 0 mm | - | 0 W/m² | - |
| 1787965843 | 24.44° C | 79% | 1103.7 hPa | 0 mm | - | 0 W/m² | - |
| 1787965537 | 24.44° C | 79% | 1103.4 hPa | 0 mm | - | 0 W/m² | - |
| 1787965233 | 25.56° C | 75% | 1103.4 hPa | 0 mm | - | 0 W/m² | - |
| 1787964927 | 25° C | 70% | 1103.3 hPa | 0 mm | - | 0 W/m² | - |
| 1787964622 | 25° C | 74% | 1103.4 hPa | 0 mm | - | 0 W/m² | - |
| 1787964316 | 25° C | 74% | 1103.4 hPa | 0 mm | - | 0 W/m² | - |
| 1787964015 | 25° C | 73% | 1103.5 hPa | 0 mm | - | 0 W/m² | - |
| 1787963715 | 25.56° C | 72% | 1103.3 hPa | 0 mm | - | 0 W/m² | - |
| 1787963410 | 25.56° C | 71% | 1103.3 hPa | 0 mm | - | 0 W/m² | - |
| 1787963106 | 25.56° C | 71% | 1103.2 hPa | 0 mm | - | 0 W/m² | - |
| 1787962805 | 26.11° C | 68% | 1103.1 hPa | 0 mm | - | 1 W/m² | - |
| 1787962504 | 26.67° C | 69% | 1103.2 hPa | 0 mm | - | 1 W/m² | - |
| 1787962203 | 27.22° C | 66% | 1103 hPa | 0 mm | - | 3 W/m² | - |
| 1787961897 | 27.78° C | 66% | 1103.1 hPa | 0 mm | - | 5 W/m² | - |
| 1787961596 | 28.33° C | 66% | 1103.1 hPa | 0 mm | - | 8 W/m² | - |
* Rain latest hour (hover to see other rain measurements)
** Current wind speed in m/s (hover to see current wind gust speed)